Location: Cointrin
(46.2167°N, 6.1167°E)
Time: 06:38:14
(UTC+00:00)

ISS - Pass Details

Date: 26 January 2026
Orbit: 413 x 429 km, 51.6° (Epoch: 11 February)

Event Time Altitude Azimuth Distance (km) Brightness Sun altitude
Rises 18:33:17 0° 295° (WNW) 2,368 1.0 -21.0°
Reaches altitude 10° 18:35:24 10° 291° (WNW) 1,504 0.0 -21.4°
Enters shadow 18:38:39 54° 219° (SW) 518 -3.2 -21.9°
